OBJECT BC

基本信息
目录编号:
63260
目录名称:
OBJECT BC
国际标识:
2025-052BC
轨道中心:
EARTH
物体状态:
在轨
发射日期:
2025-03-15 UTC
国别:
(TBD)
轨道信息
数据来源: 国际轨道数据
星历时间: 2026-09-05T11:30:58+0800
半长轴: 6960.912km
偏心率: 0.0003048
轨道倾角: 97.672°
近地点辐角: 75.603°
升交点赤经: 137.839°
平近点角: 284.553°
近地点: 580.653km
远地点: 584.897km
周期: 96.329分钟
每日圈数: 14.948706
详细信息
发射场:
AFWTR
轨道高度:
LEO
数据来源:
AOE Integration Group
参考系:
TEME
时间系统:
UTC
历元类型:
SGP4
2D轨道图
3D轨道图
轨道高度分析图
轨道倾角分析图
轨道综合分析图
查看轨道综合分析图